| time (UTC) | temp F | wind direction | speed MPH | gust MPH | rain 1hr in | rain 24hr in | rain mn in | humidity % | barometer mb |
| 20260505014205 | 68 | 5 | 2.0 | 8.0 | 0.00 | 0.00 | 0.00 | 66 | 1032.0 |
| 20260505012704 | 67 | 103 | 2.0 | 5.0 | 0.00 | 0.00 | 0.00 | 68 | 1032.2 |
| 20260505012204 | 67 | 113 | 2.0 | 6.0 | 0.00 | 0.00 | 0.00 | 67 | 1032.1 |
| 20260505011704 | 67 | 97 | 3.0 | 6.0 | 0.00 | 0.00 | 0.00 | 70 | 1032.1 |
| 20260505011204 | 67 | 59 | 2.0 | 5.0 | 0.00 | 0.00 | 0.00 | 68 | 1032.1 |
| 20260505010204 | 67 | 122 | 2.0 | 6.0 | 0.00 | 0.00 | 0.00 | 67 | 1032.3 |
| 20260505005205 | 67 | 96 | 2.0 | 6.0 | 0.00 | 0.00 | 0.00 | 67 | 1032.5 |
| 20260505004705 | 67 | 18 | 3.0 | 8.0 | 0.00 | 0.00 | 0.00 | 67 | 1032.6 |
| 20260505004204 | 67 | 18 | 5.0 | 6.0 | 0.00 | 0.00 | 0.00 | 66 | 1032.6 |
| 20260505003704 | 67 | 78 | 3.0 | 7.0 | 0.00 | 0.00 | 0.00 | 69 | 1032.6 |
| 20260505003204 | 66 | 108 | 1.0 | 5.0 | 0.00 | 0.00 | 0.00 | 68 | 1032.8 |
| 20260505002704 | 66 | 78 | 3.0 | 6.0 | 0.00 | 0.00 | 0.00 | 68 | 1032.9 |
| 20260505002205 | 65 | 19 | 3.0 | 7.0 | 0.00 | 0.00 | 0.00 | 69 | 1033.0 |
| 20260505001704 | 65 | 18 | 2.0 | 5.0 | 0.00 | 0.00 | 0.00 | 69 | 1033.0 |
| 20260505001205 | 65 | 8 | 3.0 | 5.0 | 0.00 | 0.00 | 0.00 | 68 | 1033.1 |
| 20260505000704 | 65 | 20 | 2.0 | 5.0 | 0.00 | 0.00 | 0.00 | 68 | 1033.1 |
| 20260505000204 | 65 | 353 | 2.0 | 5.0 | 0.00 | 0.00 | 0.00 | 69 | 1033.2 |
| 20260504235704 | 65 | 37 | 3.0 | 6.0 | 0.00 | 0.00 | 0.00 | 69 | 1033.3 |
| 20260504234705 | 65 | 91 | 2.0 | 5.0 | 0.00 | 0.00 | 0.00 | 71 | 1033.4 |
| 20260504234204 | 65 | 63 | 2.0 | 5.0 | 0.00 | 0.00 | 0.00 | 71 | 1033.4 |
| 20260504233704 | 64 | 80 | 3.0 | 6.0 | 0.00 | 0.00 | 0.00 | 72 | 1033.3 |
| 20260504233205 | 64 | 121 | 1.0 | 6.0 | 0.00 | 0.00 | 0.00 | 72 | 1033.6 |
| 20260504232704 | 64 | 33 | 1.0 | 6.0 | 0.00 | 0.00 | 0.00 | 72 | 1033.6 |
| 20260504232205 | 64 | 27 | 2.0 | 5.0 | 0.00 | 0.00 | 0.00 | 75 | 1033.6 |
| 20260504231704 | 63 | 0 | 1.0 | 2.0 | 0.00 | 0.00 | 0.00 | 76 | 1033.6 |
| 20260504230704 | 62 | 77 | 2.0 | 3.0 | 0.00 | 0.00 | 0.00 | 78 | 1033.9 |
| 20260504230204 | 62 | 176 | 1.0 | 5.0 | 0.00 | 0.00 | 0.00 | 79 | 1033.9 |
| 20260504225204 | 61 | 14 | 1.0 | 2.0 | 0.00 | 0.00 | 0.00 | 80 | 1033.9 |
| 20260504224704 | 60 | 214 | 2.0 | 3.0 | 0.00 | 0.00 | 0.00 | 81 | 1034.0 |
| 20260504223705 | 60 | 282 | 1.0 | 3.0 | 0.00 | 0.00 | 0.00 | 82 | 1034.0 |
| 20260504223203 | 60 | 268 | 2.0 | 3.0 | 0.00 | 0.00 | 0.00 | 82 | 1034.0 |
| 20260504222204 | 59 | 280 | 2.0 | 3.0 | 0.00 | 0.00 | 0.00 | 83 | 1034.1 |
| 20260504221703 | 59 | 272 | 2.0 | 5.0 | 0.00 | 0.00 | 0.00 | 83 | 1034.0 |
| 20260504221204 | 59 | 285 | 3.0 | 6.0 | 0.00 | 0.00 | 0.00 | 84 | 1034.2 |
| 20260504220704 | 59 | 288 | 5.0 | 7.0 | 0.00 | 0.00 | 0.00 | 83 | 1034.2 |
| 20260504220204 | 59 | 278 | 5.0 | 9.0 | 0.00 | 0.00 | 0.00 | 83 | 1033.9 |
| 20260504215704 | 59 | 302 | 5.0 | 6.0 | 0.00 | 0.00 | 0.00 | 82 | 1034.1 |
| 20260504215204 | 58 | 295 | 5.0 | 6.0 | 0.00 | 0.00 | 0.00 | 83 | 1033.9 |
| 20260504213705 | 58 | 305 | 5.0 | 5.0 | 0.00 | 0.00 | 0.00 | 82 | 1033.9 |
| 20260504213204 | 58 | 347 | 3.0 | 5.0 | 0.00 | 0.00 | 0.00 | 83 | 1034.1 |
| 20260504212704 | 57 | 298 | 2.0 | 2.0 | 0.00 | 0.00 | 0.00 | 84 | 1034.0 |
| 20260504212204 | 57 | 301 | 2.0 | 3.0 | 0.00 | 0.00 | 0.00 | 84 | 1033.9 |
| 20260504211704 | 57 | 288 | 3.0 | 5.0 | 0.00 | 0.00 | 0.00 | 85 | 1033.9 |
| 20260504210704 | 56 | 270 | 2.0 | 2.0 | 0.00 | 0.00 | 0.00 | 88 | 1034.0 |
| 20260504210205 | 55 | 287 | 1.0 | 2.0 | 0.00 | 0.00 | 0.00 | 89 | 1034.0 |
| 20260504205703 | 55 | 293 | 2.0 | 5.0 | 0.00 | 0.00 | 0.00 | 90 | 1033.9 |
| 20260504205204 | 54 | 280 | 3.0 | 6.0 | 0.00 | 0.00 | 0.00 | 90 | 1034.1 |
| 20260504204704 | 54 | 249 | 2.0 | 3.0 | 0.00 | 0.00 | 0.00 | 91 | 1033.9 |
| 20260504204204 | 54 | 214 | 0.0 | 1.0 | 0.00 | 0.00 | 0.00 | 91 | 1034.0 |
| 20260504203704 | 54 | 242 | 1.0 | 2.0 | 0.00 | 0.00 | 0.00 | 91 | 1034.1 |
| 20260504203204 | 54 | 300 | 3.0 | 5.0 | 0.00 | 0.00 | 0.00 | 92 | 1034.2 |
| 20260504202704 | 53 | 270 | 3.0 | 5.0 | 0.00 | 0.00 | 0.00 | 92 | 1034.2 |
| 20260504202204 | 53 | 255 | 1.0 | 1.0 | 0.00 | 0.00 | 0.00 | 92 | 1034.0 |
| 20260504201704 | 53 | 328 | 1.0 | 6.0 | 0.00 | 0.00 | 0.00 | 92 | 1034.1 |
| 20260504200705 | 53 | 287 | 2.0 | 5.0 | 0.00 | 0.00 | 0.00 | 92 | 1034.0 |
| 20260504200204 | 53 | 127 | 0.0 | 2.0 | 0.00 | 0.00 | 0.00 | 92 | 1033.7 |
| 20260504195205 | 53 | 129 | 1.0 | 2.0 | 0.00 | 0.00 | 0.00 | 93 | 1033.9 |
| 20260504194704 | 52 | 308 | 0.0 | 2.0 | 0.00 | 0.00 | 0.00 | 93 | 1033.8 |
| 20260504194207 | 52 | 355 | 1.0 | 2.0 | 0.00 | 0.00 | 0.00 | 93 | 1033.8 |
| 20260504193205 | 52 | 326 | 1.0 | 2.0 | 0.00 | 0.00 | 0.00 | 93 | 1033.9 |
| 20260504192704 | 52 | 358 | 1.0 | 2.0 | 0.00 | 0.00 | 0.00 | 93 | 1033.8 |
| 20260504192203 | 52 | 2 | 0.0 | 1.0 | 0.00 | 0.00 | 0.00 | 93 | 1033.7 |
| 20260504191704 | 52 | 143 | 0.0 | 1.0 | 0.00 | 0.00 | 0.00 | 93 | 1033.9 |
| 20260504191204 | 52 | 131 | 0.0 | 2.0 | 0.00 | 0.00 | 0.00 | 93 | 1033.6 |
| 20260504190703 | 52 | 231 | 1.0 | 2.0 | 0.00 | 0.00 | 0.00 | 93 | 1033.6 |
| 20260504190204 | 52 | 296 | 1.0 | 2.0 | 0.00 | 0.00 | 0.00 | 93 | 1033.5 |
| 20260504185704 | 52 | 211 | 0.0 | 1.0 | 0.00 | 0.00 | 0.00 | 93 | 1033.7 |
| 20260504185204 | 52 | 268 | 1.0 | 2.0 | 0.00 | 0.00 | 0.00 | 93 | 1033.5 |
| 20260504184704 | 52 | 275 | 2.0 | 2.0 | 0.00 | 0.00 | 0.00 | 93 | 1033.6 |
| 20260504184204 | 52 | 245 | 0.0 | 2.0 | 0.00 | 0.00 | 0.00 | 93 | 1033.6 |
| 20260504183704 | 52 | 232 | 1.0 | 2.0 | 0.00 | 0.00 | 0.00 | 93 | 1033.7 |
| 20260504183205 | 52 | 262 | 0.0 | 2.0 | 0.00 | 0.00 | 0.00 | 93 | 1033.7 |
| 20260504182704 | 52 | 5 | 0.0 | 2.0 | 0.00 | 0.00 | 0.00 | 93 | 1033.8 |
| 20260504182204 | 52 | 299 | 2.0 | 2.0 | 0.00 | 0.00 | 0.00 | 93 | 1033.7 |
| 20260504181703 | 52 | 241 | 0.0 | 2.0 | 0.00 | 0.00 | 0.00 | 93 | 1033.9 |
| 20260504181204 | 52 | 264 | 3.0 | 5.0 | 0.00 | 0.00 | 0.00 | 93 | 1033.8 |
| 20260504180705 | 52 | 255 | 2.0 | 3.0 | 0.00 | 0.00 | 0.00 | 93 | 1033.9 |
| 20260504180204 | 52 | 256 | 1.0 | 3.0 | 0.00 | 0.00 | 0.00 | 93 | 1033.7 |
| 20260504175704 | 52 | 308 | 1.0 | 2.0 | 0.00 | 0.00 | 0.00 | 93 | 1033.8 |
| 20260504175204 | 52 | 313 | 1.0 | 3.0 | 0.00 | 0.00 | 0.00 | 93 | 1033.8 |
| 20260504174704 | 52 | 286 | 2.0 | 3.0 | 0.00 | 0.00 | 0.00 | 93 | 1033.8 |
| 20260504174204 | 52 | 284 | 3.0 | 5.0 | 0.00 | 0.00 | 0.00 | 93 | 1033.8 |
| 20260504173204 | 52 | 297 | 1.0 | 2.0 | 0.00 | 0.00 | 0.00 | 93 | 1033.8 |
| 20260504172705 | 52 | 346 | 0.0 | 2.0 | 0.00 | 0.00 | 0.00 | 93 | 1033.7 |
| 20260504172204 | 52 | 326 | 2.0 | 3.0 | 0.00 | 0.00 | 0.00 | 93 | 1033.8 |
| 20260504171704 | 52 | 329 | 2.0 | 5.0 | 0.00 | 0.00 | 0.00 | 93 | 1033.9 |
| 20260504171204 | 52 | 313 | 2.0 | 3.0 | 0.00 | 0.00 | 0.00 | 92 | 1033.6 |
| 20260504170705 | 52 | 341 | 1.0 | 2.0 | 0.00 | 0.00 | 0.00 | 92 | 1033.8 |
| 20260504170204 | 52 | 207 | 0.0 | 2.0 | 0.00 | 0.00 | 0.00 | 92 | 1033.7 |
| 20260504150704 | 51 | 290 | 0.0 | 2.0 | 0.00 | 0.00 | 0.00 | 91 | 1034.2 |
| 20260504141204 | 53 | 224 | 2.0 | 2.0 | 0.00 | 0.00 | 0.00 | 88 | 1034.8 |
| 20260504140704 | 53 | 243 | 2.0 | 2.0 | 0.00 | 0.00 | 0.00 | 88 | 1034.6 |
| 20260504140204 | 53 | 231 | 2.0 | 3.0 | 0.00 | 0.00 | 0.00 | 89 | 1034.9 |
| 20260504130704 | 53 | 279 | 3.0 | 5.0 | 0.00 | 0.00 | 0.00 | 87 | 1035.2 |
| 20260504130204 | 53 | 280 | 3.0 | 5.0 | 0.00 | 0.00 | 0.00 | 87 | 1035.3 |
| 20260504120205 | 55 | 190 | 2.0 | 2.0 | 0.00 | 0.00 | 0.00 | 83 | 1035.4 |
| 20260504110204 | 52 | 72 | 1.0 | 2.0 | 0.00 | 0.00 | 0.00 | 89 | 1035.1 |
| 20260504100205 | 51 | 257 | 0.0 | 2.0 | 0.00 | 0.00 | 0.00 | 88 | 1035.5 |
| 20260504081705 | 54 | 326 | 1.0 | 3.0 | 0.00 | 0.00 | 0.00 | 82 | 1035.1 |
| 20260504081205 | 54 | 140 | 0.0 | 2.0 | 0.00 | 0.00 | 0.00 | 82 | 1035.4 |
| 20260504080705 | 54 | 122 | 1.0 | 2.0 | 0.00 | 0.00 | 0.00 | 82 | 1035.2 |
| 20260504080205 | 54 | 277 | 0.0 | 1.0 | 0.00 | 0.00 | 0.00 | 82 | 1035.3 |
| 20260504070204 | 58 | 25 | 3.0 | 5.0 | 0.00 | 0.00 | 0.00 | 72 | 1034.8 |
| 20260504060204 | 60 | 36 | 6.0 | 9.0 | 0.00 | 0.00 | 0.00 | 69 | 1034.1 |
| 20260504050704 | 62 | 34 | 3.0 | 7.0 | 0.00 | 0.00 | 0.00 | 64 | 1033.8 |
| 20260504050204 | 62 | 26 | 3.0 | 5.0 | 0.00 | 0.00 | 0.00 | 64 | 1033.7 |
| 20260504045704 | 62 | 30 | 2.0 | 5.0 | 0.00 | 0.00 | 0.00 | 65 | 1034.0 |
| 20260504045205 | 63 | 65 | 3.0 | 5.0 | 0.00 | 0.00 | 0.00 | 65 | 1033.9 |
| 20260504044704 | 63 | 28 | 4.0 | 6.0 | 0.00 | 0.00 | 0.00 | 64 | 1033.9 |
| 20260504044205 | 63 | 19 | 5.0 | 6.0 | 0.00 | 0.00 | 0.00 | 63 | 1034.0 |
| 20260504043704 | 63 | 19 | 5.0 | 7.0 | 0.00 | 0.00 | 0.00 | 64 | 1034.0 |
| 20260504043204 | 63 | 27 | 3.0 | 5.0 | 0.00 | 0.00 | 0.00 | 64 | 1034.1 |
| 20260504042204 | 63 | 46 | 3.0 | 6.0 | 0.00 | 0.00 | 0.00 | 63 | 1033.9 |
| 20260504041204 | 64 | 52 | 3.0 | 5.0 | 0.00 | 0.00 | 0.00 | 63 | 1033.9 |
| 20260504040704 | 64 | 42 | 3.0 | 5.0 | 0.00 | 0.00 | 0.00 | 63 | 1033.9 |
| 20260504035705 | 64 | 37 | 5.0 | 8.0 | 0.00 | 0.00 | 0.00 | 61 | 1034.1 |
| 20260504035204 | 64 | 24 | 4.0 | 5.0 | 0.00 | 0.00 | 0.00 | 61 | 1033.9 |
| 20260504034704 | 64 | 359 | 3.0 | 6.0 | 0.00 | 0.00 | 0.00 | 60 | 1033.8 |
| 20260504034204 | 65 | 358 | 2.0 | 5.0 | 0.00 | 0.00 | 0.00 | 62 | 1033.9 |
| 20260504033705 | 65 | 339 | 3.0 | 6.0 | 0.00 | 0.00 | 0.00 | 62 | 1034.0 |
| 20260504032704 | 65 | 30 | 3.0 | 7.0 | 0.00 | 0.00 | 0.00 | 58 | 1033.9 |
| 20260504032203 | 66 | 18 | 5.0 | 7.0 | 0.00 | 0.00 | 0.00 | 58 | 1033.9 |
| 20260504031204 | 65 | 333 | 6.0 | 9.0 | 0.00 | 0.00 | 0.00 | 59 | 1033.9 |
| 20260504030204 | 65 | 348 | 6.0 | 10.0 | 0.00 | 0.00 | 0.00 | 61 | 1033.9 |
| 20260504025704 | 66 | 16 | 4.0 | 12.0 | 0.00 | 0.00 | 0.00 | 58 | 1034.1 |
| 20260504025204 | 66 | 339 | 5.0 | 8.0 | 0.00 | 0.00 | 0.00 | 58 | 1034.0 |
| 20260504024704 | 65 | 16 | 5.0 | 9.0 | 0.00 | 0.00 | 0.00 | 58 | 1034.1 |
| 20260504024204 | 65 | 23 | 5.0 | 8.0 | 0.00 | 0.00 | 0.00 | 59 | 1033.8 |
| 20260504023703 | 65 | 6 | 5.0 | 8.0 | 0.00 | 0.00 | 0.00 | 61 | 1034.0 |
| 20260504023204 | 65 | 356 | 3.0 | 8.0 | 0.00 | 0.00 | 0.00 | 60 | 1033.9 |
| 20260504021705 | 65 | 322 | 6.0 | 10.0 | 0.00 | 0.00 | 0.00 | 60 | 1034.1 |
| 20260504021204 | 65 | 334 | 5.0 | 9.0 | 0.00 | 0.00 | 0.00 | 61 | 1033.8 |
| 20260504020704 | 65 | 318 | 3.0 | 8.0 | 0.00 | 0.00 | 0.00 | 64 | 1034.1 |
| 20260504020204 | 65 | 313 | 6.0 | 10.0 | 0.00 | 0.00 | 0.00 | 65 | 1034.3 |
| 20260504015704 | 65 | 320 | 5.0 | 9.0 | 0.00 | 0.00 | 0.00 | 64 | 1034.0 |
| 20260504015204 | 65 | 317 | 5.0 | 9.0 | 0.00 | 0.00 | 0.00 | 63 | 1034.2 |
| 20260504014704 | 64 | 333 | 3.0 | 6.0 | 0.00 | 0.00 | 0.00 | 61 | 1034.2 |